Location: Ariel
(45.9570°N, 122.5700°W)
Time: 09:36:16
(UTC-07:00)

Altair - Pass Details

Date: 26 July 2019
Orbit: 1501 x 1683 km, 47.2° (Epoch: 22 August)

Event Time Altitude Azimuth Distance (km) Brightness Sun altitude
Rises 19:33:03 0° 288° (WNW) 4,662 12.3 11.0°
Reaches altitude 10° 19:37:25 10° 270° (W) 3,698 11.3 10.3°
Maximum altitude 19:42:49 17° 233° (SW) 3,194 9.8 9.4°
Drops below altitude 10° 19:48:20 10° 197° (SSW) 3,764 9.6 8.5°
Sets 19:52:54 0° 179° (S) 4,781 9.9 7.7°
